Regional Weather Roundup
Issued by NWS

Home | Current Version | Previous Version | Graphics & Text | Print | Product List | Glossary On
Versions: 1 2 3 4 5 6 7 8 9 10 11 12 13 14 15 16 17 18 19 20 21 22 23 24 25 26 27 28 29 30 31 32 33 34 35 36 37 38 39 40 41 42 43 44 45 46 47 48 49 50
000
ASUS45 KCYS 010410
RWRWY

WYOMING REGIONAL WEATHER ROUNDUP
NATIONAL WEATHER SERVICE CHEYENNE WY
1000 PM MDT MON AUG 31 2015

NOTE:  "FAIR" INDICATES FEW OR NO CLOUDS BELOW 12,000 FEET
WITH NO SIGNIFICANT WEATHER AND/OR OBSTRUCTIONS TO VISIBILITY.

WYZ001-010500-
YELLOWSTONE NATIONAL PARK

CITY           SKY/WX    TMP DP  RH WIND       PRES   REMARKS
LK YELLOWSTONE   N/A     42  29  59 W3        30.23R
W YELLOWSTONE  NOT AVBL

$$
WYZ002>013-054>058-071-098>099-010500-
NORTHERN WYOMING

CITY           SKY/WX    TMP DP  RH WIND       PRES   REMARKS
JACKSON        FAIR      61  27  27 CALM      30.13R
CODY           FAIR      66  28  24 S6        30.00R
GREYBULL       FAIR      72  24  16 NW9       29.90R
WORLAND        FAIR      61  32  33 CALM      29.91R
SHERIDAN       FAIR      58  47  66 E3        29.94R
BUFFALO        FAIR      64  42  44 W8        30.01R
GILLETTE       FAIR      67  53  61 NE8       29.95R
HULETT         FAIR      61  54  77 NE5       29.98F
NEWCASTLE      FAIR      70  48  46 E21G26    29.97S

$$
WYZ014>020-022>026-101>103-010500-
CENTRAL WYOMING

CITY           SKY/WX    TMP DP  RH WIND       PRES   REMARKS
BIG PINEY      FAIR      53  23  31 N9        30.20R
PINEDALE       FAIR      52  28  40 N3        30.21R
DUBOIS         FAIR      54  25  32 NW6       30.19R
LANDER         FAIR      69  24  18 W15       30.02R
RIVERTON       FAIR      67  23  19 NW14      30.03R
CASPER         FAIR      69  39  33 SW18      30.03R
DOUGLAS        FAIR      69  41  36 S10       30.01R

$$
WYZ021-027>030-104>119-010500-
SOUTHERN WYOMING

CITY           SKY/WX    TMP DP  RH WIND       PRES   REMARKS
EVANSTON       FAIR      65  30  27 W5        30.20R
KEMMERER       FAIR      57  27  30 N6        30.21R
FORT BRIDGER   CLEAR     63  32  31 W7        30.22R
ROCK SPRINGS   FAIR      61  40  45 S12       30.17R
DIXON          FAIR      55  47  76 E3        30.24S
RAWLINS        FAIR      60  39  45 SW10      30.18R
SARATOGA       FAIR      54  45  71 SE13      30.23S
LARAMIE        FAIR      54  46  74 S13       30.24S
CHEYENNE       FAIR      60  49  66 SW5       30.18F
TORRINGTON     FAIR      70  48  45 S10       30.01F
PINE BLUFFS    MOCLDY    63  50  63 CALM      30.14F

$$


USA.gov is the U.S. government's official web portal to all federal, state and local government web resources and services.